Location: Großglattbach
(48.9143°N, 8.8949°E)
Time: 23:54:06
(UTC+00:00)

Daily predictions for brighter satellites

Satellite Brightness Start Highest point End
(mag) Time Altitude Azimuth Time Altitude Azimuth Time Altitude Azimuth
Meteor 1-28 Rocket 3.6 15:56:56 10° NNE 16:00:02 34° E 16:03:06 10° SSE
Cosmos 2026 Rocket 4.2 15:55:05 10° N 16:01:19 81° W 16:07:38 10° S
Cosmos 1544 Rocket 4.2 15:59:12 10° SSE 16:03:15 37° E 16:07:20 10° NNE
Cosmos 1484 Rocket 2.5 16:00:33 10° SSE 16:04:02 66° ENE 16:07:31 10° N
Cosmos 1697 Rocket 4.2 16:01:04 10° SE 16:04:38 18° E 16:08:13 10° ENE
NOSS 2-2 (E) 3.6 16:01:51 10° SSW 16:05:01 35° SE 16:07:50 10° ENE
BREEZE M DEB (TANK) 4.2 15:48:09 10° W 16:06:37 83° SSW 16:11:02 10° ESE
Intercosmos 24 3.8 16:05:13 10° N 16:09:07 55° ENE 16:12:36 10° SSE
Cosmos 1634 Rocket 4.0 16:03:07 10° S 16:09:17 77° E 16:15:28 10° NNE
Cosmos 405 Rocket 2.2 16:06:04 10° N 16:09:19 65° ENE 16:12:31 10° SSE
Lacrosse 5 rocket 1.6 16:09:02 10° WSW 16:12:41 49° NNW 16:16:17 10° NE
Cosmos 1461 4.1 16:14:14 10° SSE 16:17:16 22° ESE 16:20:09 11° ENE
CENTAUR R/B 3.0 16:11:41 10° WSW 16:17:23 59° NW 16:24:38 10° NE
Meteor 1-20 Rocket 4.5 16:15:23 10° N 16:20:35 43° ENE 16:25:46 10° SE
Cosmos 1455 Rocket 4.2 16:17:28 10° SSW 16:21:37 45° WNW 16:25:50 10° N
Cosmos 1602 Rocket 3.9 16:19:05 10° N 16:23:18 43° ENE 16:27:28 10° SSE
Cosmos 2279 Rocket 4.0 16:17:44 10° S 16:23:53 69° E 16:30:06 10° NNE
Cosmos 1570 Rocket 4.3 16:21:25 10° NNW 16:26:46 75° WSW 16:32:03 10° SSE
SMAP 3.0 16:25:42 10° SSE 16:30:18 66° ENE 16:34:56 10° N
Cosmos 1656 3.7 16:26:02 10° SSW 16:31:37 74° ESE 16:37:19 10° NNE
UNK 3.8 16:28:26 10° NNE 16:32:58 56° E 16:37:25 10° S
YAOGAN 1 3.9 16:31:27 10° ESE 16:34:22 18° ENE 16:37:18 10° NNE
Cosmos 2228 3.5 16:31:01 10° SSW 16:35:11 60° WNW 16:39:26 10° N
NOSS 2-2 (C) 3.7 16:32:29 10° WSW 16:35:30 40° NW 16:38:06 12° NNE
Landsat 7 3.8 16:31:14 10° SSE 16:35:47 57° ENE 16:40:23 10° N
SAR-Lupe-4 3.7 16:32:40 10° SE 16:36:06 48° ENE 16:39:33 10° N
Cosmos 1867 3.7 16:30:55 10° NNW 16:36:16 53° NE 16:41:35 10° ESE
Cosmos 1486 Rocket 4.0 16:31:34 10° S 16:36:41 63° ESE 16:41:53 10° NNE
Cosmos 2297 Rocket 2.2 16:34:36 10° NNW 16:40:19 85° ENE 16:46:00 10° SSE
USA 290 2.1 16:37:06 10° NNW 16:40:22 75° ENE 16:43:36 10° SSE
USA 215 3.8 16:35:28 13° ENE 16:40:57 44° N 16:47:05 10° WNW
Cosmos 2180 Rocket 4.4 16:35:22 10° S 16:41:25 67° E 16:47:31 10° NNE
Cosmos 773 Rocket 4.2 16:38:23 10° NNW 16:43:36 75° WSW 16:48:49 10° SSE
SAR-Lupe-1 4.1 16:41:39 10° SSE 16:45:09 53° ENE 16:48:42 10° N
Cosmos 1782 2.6 16:42:00 10° SSW 16:45:36 80° W 16:49:13 10° N
IRIDIUM 106 4.3 16:41:45 10° N 16:46:58 66° E 16:52:08 10° SSE
ATLAS CENTAUR R/B 1.7 16:44:08 10° NW 16:47:17 48° SW 16:50:20 10° SSE
CZ-4C R/B 2.9 16:41:27 10° NW 16:48:17 77° NE 16:56:51 10° SE
Cosmos 1607 4.0 16:43:18 10° NW 16:49:34 89° SW 16:55:52 10° SE
Cosmos 1733 3.6 16:48:35 10° NW 16:49:58 24° W 16:51:19 10° SSW
CZ-2D R/B 2.6 16:48:32 10° SSE 16:51:39 69° ENE 16:54:47 10° N
IRS-P3 4.1 16:49:22 10° SSE 16:54:37 62° ENE 16:59:52 10° N
Lacrosse 4 Rocket 3.4 16:52:23 10° W 16:55:27 20° NW 16:58:30 10° N
Meteor 1-25 Rocket 4.3 16:50:11 10° N 16:56:00 64° ENE 17:01:43 10° SSE
ARIANE 5 R/B 2.5 16:51:18 10° SSE 16:56:21 87° ENE 17:01:31 10° NNW
Cosmos 2219 4.1 16:52:01 10° NNW 16:56:55 28° NE 16:59:37 20° E
Cosmos 1825 Rocket 3.7 16:52:52 10° N 16:57:06 48° ENE 17:01:17 10° SSE
Cosmos 1758 Rocket 4.4 16:55:06 10° NNW 16:59:18 52° W 17:03:27 10° S
Cosmos 2266 Rocket 3.9 16:53:20 10° N 16:59:32 80° E 17:05:36 10° SSE
Cosmos 2098 Rocket 3.3 16:57:59 10° SSW 17:02:01 70° WNW 17:06:50 10° N
Meteor 1-5 Rocket 4.3 16:58:19 10° N 17:03:29 48° ENE 17:08:43 10° SSE
Cosmos 2151 3.1 17:00:34 10° NNW 17:04:43 75° W 17:08:52 10° S
Cosmos 1743 3.3 17:02:12 10° NNW 17:05:21 48° W 17:08:29 10° S
SPOT 1/Viking Rocket 3.6 17:01:16 10° SE 17:06:19 54° ENE 17:11:24 10° N
Cosmos 1980 Rocket 3.2 17:02:25 10° SSE 17:06:54 25° ESE 17:08:00 23° E
Cosmos 1844 Rocket 4.3 17:07:46 10° N 17:10:59 16° NNE 17:10:59 16° NNE
SL-16 R/B 3.6 17:09:44 10° N 17:15:36 45° WNW 17:21:25 10° SW
Cosmos 2058 Rocket 4.3 17:12:04 10° SE 17:14:42 24° ESE 17:14:42 24° ESE
Cosmos 2263 Rocket 2.4 17:13:11 10° NNW 17:18:41 49° NE 17:23:09 15° SE
NOSS 3-2 (C) 3.1 17:14:19 10° SW 17:19:22 85° SE 17:23:02 24° NE
NOSS 3-2 (A) 3.9 17:14:39 10° WSW 17:19:41 50° NW 17:24:05 18° NNE
CZ-4 R/B 4.2 17:19:16 10° SSE 17:23:12 75° ENE 17:27:09 10° N
GEOS 3 Rocket 4.1 17:19:36 18° NNE 17:23:30 58° NW 17:28:45 10° WSW
MOS 1 Rocket 3.6 17:18:46 10° S 17:23:38 75° WSW 17:28:49 10° NNW
BREEZE M DEB (TANK) 2.6 17:23:36 10° WSW 17:25:20 40° SSW 17:25:20 40° SSW
Cosmos 1076 Rocket 3.4 17:22:13 10° N 17:26:29 62° ENE 17:30:45 10° SSE
Cosmos 1933 3.2 17:24:19 10° SSW 17:28:09 80° W 17:30:45 20° N
Cosmos 2084 Rocket 4.1 17:27:15 10° NW 17:31:22 54° SW 17:35:27 10° SSE
Cosmos 2227 Rocket 2.2 17:25:49 10° NNW 17:31:30 88° WSW 17:37:09 10° SSE
Cosmos 1606 Rocket 3.5 17:27:13 10° S 17:31:37 85° W 17:35:23 14° N
Cosmos 1538 Rocket 4.0 17:27:15 10° NNW 17:32:28 56° ENE 17:36:28 17° SE
PSLV R/B 3.3 17:36:04 56° E 17:36:18 57° ENE 17:40:17 10° N
CZ-2D R/B 3.3 17:32:52 10° SSE 17:37:04 81° ENE 17:41:15 10° NNW
COSMO-SKYMED 1 2.7 17:39:15 48° SE 17:39:15 48° SE 17:42:48 10° S
SL-19 R/B 4.1 17:35:26 10° SSE 17:40:44 68° ENE 17:46:22 10° NNW
Resurs 1-3 3.4 17:36:49 10° SSE 17:41:05 72° ENE 17:45:23 10° N
Cosmos 1503 Rocket 4.5 17:37:12 10° SW 17:42:22 59° WNW 17:46:10 18° NNE
BREEZE-M DEB (TANK) 3.8 17:40:12 10° W 17:43:48 88° S 17:48:33 29° ESE
Meteor 2-20 4.3 17:41:06 10° S 17:47:15 76° E 17:53:25 10° NNE
Cosmos 1697 Rocket 2.7 17:42:15 10° SSW 17:47:51 83° WNW 17:50:44 30° NNE
Lacrosse 5 rocket 2.8 17:47:17 10° WNW 17:49:58 23° NNW 17:49:58 23° NNW
Cosmos 1354 Rocket 4.2 17:45:21 10° SSW 17:50:36 71° WNW 17:53:34 26° NNE
BREEZE-M DEB (TANK) 4.2 17:49:17 10° WNW 17:53:05 68° NNE 17:57:03 36° E
Cosmos 1461 3.4 17:49:58 10° WSW 17:53:46 48° NW 17:54:18 44° NNW
Spot 4 Rocket 4.0 17:49:44 10° SSE 17:54:51 82° WSW 18:00:00 10° NNW
IRAS Rocket 4.1 17:50:31 10° SSE 17:56:01 87° ENE 18:01:32 10° NNW
Cosmos 1726 Rocket 4.0 17:52:19 10° SSW 17:56:56 65° WNW 17:59:49 22° N
SL-08 R/B 4.4 17:53:48 10° N 18:00:05 61° ENE 18:06:20 10° SSE
Cosmos 1655 Rocket 4.3 17:54:35 10° NNW 18:00:48 69° W 18:06:57 10° S
SKYMED 2 3.9 17:59:36 35° N 18:01:18 65° WNW 18:05:35 10° SSW
Gbstr 26 Del rocket 3.3 17:59:33 10° WSW 18:02:38 51° SW 18:02:38 51° SW
Cosmos 1898 Rocket 4.2 17:59:55 10° S 18:03:17 37° SSE 18:03:17 37° SSE
Meteor 2-10 4.1 18:02:45 10° NNW 18:08:06 82° W 18:13:37 10° S
Meteor 2-20 Rocket 4.3 18:03:08 10° S 18:09:23 80° E 18:12:30 31° NNE
CENTAUR R/B 4.1 18:03:58 10° WNW 18:09:35 29° NNW 18:12:27 23° NNE
YAOGAN 1 3.1 18:05:39 10° S 18:09:49 57° W 18:14:02 10° NNW
USA 281 4.4 18:17:15 25° NNE 18:17:15 25° NNE 18:20:48 10° NNW
Cosmos 2082 3.7 18:11:49 10° NNW 18:17:03 67° NNE 18:17:03 67° NNE
Meteor 1-26 Rocket 4.0 18:12:59 10° S 18:18:03 77° SSE 18:18:03 77° SSE
USA 238 DEB 3.3 18:13:23 10° SSW 18:19:28 74° SE 18:19:57 70° E
USA 238 3.3 18:13:30 10° SSW 18:19:35 73° SE 18:20:02 70° E
USA 215 3.3 18:22:49 56° NE 18:23:22 58° NNE 18:29:46 10° WNW
Cosmos 372 Rocket 4.3 18:22:18 10° SSW 18:26:26 58° SSW 18:26:26 58° SSW
Aureole 1 Rocket 3.9 18:24:11 10° SSW 18:27:16 48° SW 18:27:16 48° SW
CZ-4C R/B 4.5 18:30:02 10° NW 18:36:29 34° WSW 18:44:03 10° S
Cosmos 2219 3.4 18:35:49 10° NNW 18:41:32 66° WSW 18:41:35 66° WSW
Cosmos 1980 Rocket 2.7 18:44:51 10° SW 18:49:48 57° W 18:49:48 57° W
Cosmos 1844 Rocket 4.5 18:50:40 10° NNW 18:52:37 22° NNW 18:52:37 22° NNW
Cosmos 2263 Rocket 3.7 18:57:25 10° NW 19:02:24 32° WSW 19:04:58 22° SSW
